| time (UTC) | temp F | wind direction | speed MPH | gust MPH | rain 1hr in | rain 24hr in | rain mn in | humidity % | barometer mb |
| 20260505011054 | 57 | 0 | 0.0 | 0.0 | 0.00 | 0.01 | 0.00 | 68 | 1003.3 |
| 20260505010554 | 57 | 0 | 0.0 | 0.0 | 0.00 | 0.01 | 0.00 | 66 | 1003.2 |
| 20260505010058 | 58 | 0 | 0.0 | 0.0 | 0.00 | 0.01 | 0.00 | 66 | 1003.2 |
| 20260505005555 | 58 | 0 | 0.0 | 0.0 | 0.00 | 0.01 | 0.00 | 64 | 1003.2 |
| 20260505005055 | 59 | 0 | 0.0 | 0.0 | 0.00 | 0.01 | 0.00 | 64 | 1003.2 |
| 20260505004557 | 60 | 0 | 0.0 | 0.0 | 0.00 | 0.01 | 0.00 | 61 | 1003.1 |
| 20260505004054 | 60 | 0 | 0.0 | 0.0 | 0.00 | 0.01 | 0.00 | 60 | 1003.0 |
| 20260505003559 | 61 | 0 | 0.0 | 0.0 | 0.00 | 0.01 | 0.00 | 59 | 1003.0 |
| 20260505003056 | 62 | 0 | 0.0 | 0.0 | 0.00 | 0.01 | 0.00 | 58 | 1003.0 |
| 20260505002556 | 63 | 0 | 0.0 | 0.0 | 0.00 | 0.01 | 0.00 | 56 | 1003.1 |
| 20260505002054 | 63 | 0 | 0.0 | 0.0 | 0.00 | 0.01 | 0.00 | 54 | 1003.1 |
| 20260505001623 | 64 | 0 | 0.0 | 0.0 | 0.00 | 0.01 | 0.00 | 55 | 1003.1 |
| 20260505001059 | 65 | 0 | 0.0 | 0.0 | 0.00 | 0.01 | 0.00 | 54 | 1003.1 |
| 20260505000554 | 66 | 0 | 0.0 | 0.0 | 0.00 | 0.01 | 0.00 | 50 | 1003.0 |
| 20260505000135 | 68 | 0 | 0.0 | 0.0 | 0.00 | 0.01 | 0.00 | 49 | 1003.1 |
| 20260504235557 | 69 | 0 | 0.0 | 0.0 | 0.00 | 0.01 | 0.00 | 44 | 1003.1 |
| 20260504235054 | 71 | 0 | 0.0 | 0.0 | 0.00 | 0.01 | 0.00 | 44 | 1003.1 |
| 20260504234611 | 72 | 0 | 0.0 | 0.0 | 0.00 | 0.01 | 0.00 | 42 | 1003.1 |
| 20260504234053 | 74 | 0 | 0.0 | 0.0 | 0.00 | 0.01 | 0.00 | 39 | 1003.0 |
| 20260504233559 | 74 | 0 | 0.0 | 0.0 | 0.00 | 0.01 | 0.00 | 40 | 1002.9 |
| 20260504233105 | 74 | 0 | 0.0 | 0.0 | 0.00 | 0.01 | 0.00 | 37 | 1002.9 |
| 20260504232555 | 74 | 0 | 0.0 | 0.0 | 0.00 | 0.01 | 0.00 | 35 | 1003.0 |
| 20260504232054 | 75 | 0 | 0.0 | 2.0 | 0.00 | 0.01 | 0.00 | 36 | 1002.9 |
| 20260504231631 | 75 | 0 | 0.0 | 2.0 | 0.00 | 0.01 | 0.00 | 35 | 1002.9 |
| 20260504231057 | 75 | 231 | 1.0 | 4.0 | 0.00 | 0.01 | 0.00 | 34 | 1002.8 |
| 20260504230557 | 75 | 0 | 0.0 | 4.0 | 0.00 | 0.01 | 0.00 | 35 | 1002.8 |
| 20260504230057 | 75 | 217 | 2.0 | 4.0 | 0.00 | 0.01 | 0.00 | 34 | 1002.8 |
| 20260504225558 | 76 | 216 | 1.0 | 2.0 | 0.00 | 0.01 | 0.00 | 32 | 1002.8 |
| 20260504225058 | 76 | 0 | 0.0 | 2.0 | 0.00 | 0.01 | 0.00 | 34 | 1002.9 |
| 20260504224610 | 76 | 0 | 0.0 | 2.0 | 0.00 | 0.01 | 0.00 | 35 | 1002.9 |
| 20260504224057 | 75 | 226 | 0.0 | 4.0 | 0.00 | 0.01 | 0.00 | 32 | 1003.0 |
| 20260504223557 | 75 | 0 | 0.0 | 4.0 | 0.00 | 0.01 | 0.00 | 34 | 1003.1 |
| 20260504223055 | 75 | 258 | 1.0 | 7.0 | 0.00 | 0.01 | 0.00 | 33 | 1003.1 |
| 20260504222557 | 75 | 204 | 1.0 | 7.0 | 0.00 | 0.01 | 0.00 | 34 | 1003.1 |
| 20260504222054 | 75 | 0 | 2.0 | 7.0 | 0.00 | 0.01 | 0.00 | 32 | 1003.1 |
| 20260504221557 | 75 | 133 | 3.0 | 8.0 | 0.00 | 0.01 | 0.00 | 34 | 1003.1 |
| 20260504221057 | 74 | 209 | 4.0 | 8.0 | 0.00 | 0.01 | 0.00 | 34 | 1003.1 |
| 20260504220600 | 75 | 237 | 2.0 | 6.0 | 0.00 | 0.01 | 0.00 | 33 | 1003.1 |
| 20260504220100 | 74 | 222 | 2.0 | 6.0 | 0.00 | 0.01 | 0.00 | 35 | 1003.2 |
| 20260504215555 | 74 | 247 | 3.0 | 10.0 | 0.00 | 0.01 | 0.00 | 37 | 1003.3 |
| 20260504215100 | 74 | 264 | 3.0 | 10.0 | 0.00 | 0.01 | 0.00 | 36 | 1003.4 |
| 20260504214554 | 74 | 265 | 5.0 | 10.0 | 0.00 | 0.01 | 0.00 | 35 | 1003.6 |
| 20260504214057 | 74 | 262 | 5.0 | 11.0 | 0.00 | 0.01 | 0.00 | 37 | 1003.6 |
| 20260504213557 | 74 | 285 | 6.0 | 11.0 | 0.00 | 0.01 | 0.00 | 36 | 1003.4 |
| 20260504213126 | 74 | 264 | 5.0 | 10.0 | 0.00 | 0.01 | 0.00 | 37 | 1003.5 |
| 20260504212558 | 74 | 250 | 4.0 | 10.0 | 0.00 | 0.01 | 0.00 | 35 | 1003.5 |
| 20260504212057 | 74 | 271 | 5.0 | 12.0 | 0.00 | 0.01 | 0.00 | 36 | 1003.5 |
| 20260504211603 | 74 | 251 | 7.0 | 12.0 | 0.00 | 0.01 | 0.00 | 35 | 1003.5 |
| 20260504211058 | 74 | 284 | 7.0 | 11.0 | 0.00 | 0.01 | 0.00 | 36 | 1003.5 |
| 20260504210557 | 74 | 246 | 6.0 | 12.0 | 0.00 | 0.01 | 0.00 | 38 | 1003.6 |
| 20260504210055 | 74 | 218 | 5.0 | 12.0 | 0.00 | 0.01 | 0.00 | 37 | 1003.4 |
| 20260504205559 | 74 | 228 | 6.0 | 12.0 | 0.00 | 0.01 | 0.00 | 34 | 1003.5 |
| 20260504205057 | 74 | 305 | 6.0 | 13.0 | 0.00 | 0.01 | 0.00 | 37 | 1003.4 |
| 20260504204556 | 74 | 257 | 6.0 | 14.0 | 0.00 | 0.01 | 0.00 | 38 | 1003.6 |
| 20260504204057 | 74 | 262 | 8.0 | 14.0 | 0.00 | 0.01 | 0.00 | 39 | 1003.7 |
| 20260504203559 | 73 | 175 | 7.0 | 13.0 | 0.00 | 0.01 | 0.00 | 39 | 1003.6 |
| 20260504203117 | 72 | 240 | 6.0 | 12.0 | 0.00 | 0.01 | 0.00 | 38 | 1003.6 |
| 20260504202555 | 72 | 274 | 5.0 | 12.0 | 0.00 | 0.01 | 0.00 | 39 | 1003.7 |
| 20260504202058 | 73 | 227 | 7.0 | 14.0 | 0.00 | 0.01 | 0.00 | 37 | 1003.8 |
| 20260504201558 | 73 | 241 | 7.0 | 14.0 | 0.00 | 0.01 | 0.00 | 37 | 1003.9 |
| 20260504201152 | 73 | 212 | 7.0 | 12.0 | 0.00 | 0.01 | 0.00 | 38 | 1004.0 |
| 20260504200554 | 73 | 217 | 5.0 | 14.0 | 0.00 | 0.01 | 0.00 | 41 | 1004.0 |
| 20260504200055 | 72 | 234 | 7.0 | 14.0 | 0.00 | 0.01 | 0.00 | 39 | 1004.2 |
| 20260504195559 | 72 | 230 | 5.0 | 12.0 | 0.00 | 0.01 | 0.00 | 43 | 1004.1 |
| 20260504195055 | 72 | 229 | 5.0 | 12.0 | 0.00 | 0.01 | 0.00 | 39 | 1004.3 |
| 20260504194604 | 73 | 271 | 7.0 | 12.0 | 0.00 | 0.01 | 0.00 | 40 | 1004.4 |
| 20260504194054 | 73 | 240 | 7.0 | 11.0 | 0.00 | 0.01 | 0.00 | 40 | 1004.3 |
| 20260504193554 | 73 | 264 | 6.0 | 16.0 | 0.00 | 0.01 | 0.00 | 43 | 1004.4 |
| 20260504193105 | 73 | 236 | 6.0 | 16.0 | 0.00 | 0.01 | 0.00 | 40 | 1004.5 |
| 20260504192554 | 72 | 252 | 9.0 | 16.0 | 0.00 | 0.01 | 0.00 | 42 | 1004.6 |
| 20260504192054 | 72 | 283 | 7.0 | 13.0 | 0.00 | 0.01 | 0.00 | 40 | 1004.6 |
| 20260504191557 | 72 | 232 | 7.0 | 12.0 | 0.00 | 0.01 | 0.00 | 40 | 1004.6 |
| 20260504191056 | 72 | 225 | 5.0 | 12.0 | 0.00 | 0.01 | 0.00 | 41 | 1004.6 |
| 20260504190557 | 72 | 234 | 7.0 | 12.0 | 0.00 | 0.01 | 0.00 | 42 | 1004.8 |
| 20260504190115 | 72 | 123 | 4.0 | 12.0 | 0.00 | 0.01 | 0.00 | 45 | 1004.9 |
| 20260504185554 | 71 | 272 | 8.0 | 13.0 | 0.00 | 0.01 | 0.00 | 44 | 1004.9 |
| 20260504185054 | 71 | 230 | 7.0 | 13.0 | 0.00 | 0.01 | 0.00 | 44 | 1004.9 |
| 20260504184606 | 70 | 213 | 6.0 | 13.0 | 0.00 | 0.01 | 0.00 | 43 | 1004.9 |
| 20260504184055 | 70 | 289 | 5.0 | 13.0 | 0.00 | 0.01 | 0.00 | 43 | 1005.0 |
| 20260504183559 | 71 | 255 | 8.0 | 14.0 | 0.00 | 0.01 | 0.00 | 43 | 1005.0 |
| 20260504183058 | 71 | 294 | 7.0 | 14.0 | 0.00 | 0.01 | 0.00 | 43 | 1005.0 |
| 20260504182557 | 71 | 269 | 5.0 | 9.0 | 0.00 | 0.01 | 0.00 | 44 | 1005.0 |
| 20260504182054 | 70 | 267 | 5.0 | 12.0 | 0.00 | 0.01 | 0.00 | 45 | 1005.1 |
| 20260504181556 | 70 | 242 | 6.0 | 12.0 | 0.00 | 0.01 | 0.00 | 47 | 1005.0 |
| 20260504181054 | 70 | 227 | 4.0 | 12.0 | 0.00 | 0.01 | 0.00 | 45 | 1005.1 |
| 20260504180553 | 69 | 286 | 5.0 | 12.0 | 0.00 | 0.01 | 0.00 | 47 | 1005.1 |
| 20260504180055 | 69 | 229 | 6.0 | 12.0 | 0.00 | 0.01 | 0.00 | 46 | 1005.3 |
| 20260504175558 | 69 | 236 | 4.0 | 11.0 | 0.00 | 0.01 | 0.00 | 47 | 1005.3 |
| 20260504175059 | 69 | 188 | 4.0 | 13.0 | 0.00 | 0.01 | 0.00 | 47 | 1005.4 |
| 20260504174601 | 69 | 223 | 7.0 | 13.0 | 0.00 | 0.01 | 0.00 | 45 | 1005.3 |
| 20260504174055 | 69 | 232 | 4.0 | 14.0 | 0.00 | 0.01 | 0.00 | 48 | 1005.3 |
| 20260504173555 | 69 | 255 | 8.0 | 14.0 | 0.00 | 0.01 | 0.00 | 43 | 1005.4 |
| 20260504173057 | 70 | 294 | 3.0 | 13.0 | 0.00 | 0.01 | 0.00 | 46 | 1005.5 |
| 20260504172554 | 69 | 137 | 6.0 | 13.0 | 0.00 | 0.01 | 0.00 | 45 | 1005.6 |
| 20260504172056 | 68 | 246 | 4.0 | 12.0 | 0.00 | 0.01 | 0.00 | 45 | 1005.5 |
| 20260504171555 | 69 | 261 | 6.0 | 13.0 | 0.00 | 0.01 | 0.00 | 45 | 1005.6 |
| 20260504171057 | 68 | 238 | 7.0 | 14.0 | 0.00 | 0.01 | 0.00 | 47 | 1005.7 |
| 20260504170555 | 68 | 214 | 7.0 | 14.0 | 0.00 | 0.01 | 0.00 | 47 | 1005.7 |
| 20260504151055 | 63 | 231 | 6.0 | 12.0 | 0.00 | 0.01 | 0.00 | 51 | 1006.8 |
| 20260504150553 | 63 | 160 | 5.0 | 14.0 | 0.00 | 0.01 | 0.00 | 50 | 1006.8 |
| 20260504141054 | 59 | 242 | 4.0 | 10.0 | 0.00 | 0.01 | 0.00 | 51 | 1006.9 |
| 20260504140554 | 59 | 121 | 3.0 | 11.0 | 0.00 | 0.01 | 0.00 | 53 | 1007.0 |
| 20260504140108 | 58 | 223 | 6.0 | 14.0 | 0.00 | 0.01 | 0.00 | 52 | 1007.0 |
| 20260504130555 | 55 | 119 | 5.0 | 11.0 | 0.00 | 0.01 | 0.00 | 55 | 1007.5 |
| 20260504110554 | 51 | 236 | 1.0 | 8.0 | 0.00 | 0.01 | 0.00 | 59 | 1007.4 |
| 20260504110118 | 51 | 106 | 3.0 | 8.0 | 0.00 | 0.01 | 0.00 | 59 | 1007.3 |
| 20260504100555 | 50 | 139 | 1.0 | 4.0 | 0.00 | 0.01 | 0.00 | 61 | 1007.3 |
| 20260504090119 | 50 | 207 | 2.0 | 6.0 | 0.00 | 0.01 | 0.00 | 60 | 1007.4 |
| 20260504081601 | 50 | 256 | 3.0 | 7.0 | 0.00 | 0.01 | 0.00 | 60 | 1007.6 |
| 20260504081054 | 50 | 213 | 2.0 | 7.0 | 0.00 | 0.01 | 0.00 | 60 | 1007.6 |
| 20260504080557 | 50 | 153 | 1.0 | 6.0 | 0.00 | 0.01 | 0.00 | 60 | 1007.7 |
| 20260504060103 | 50 | 233 | 1.0 | 5.0 | 0.00 | 0.01 | 0.00 | 65 | 1008.3 |
| 20260504050556 | 47 | 0 | 0.0 | 0.0 | 0.00 | 0.01 | 0.00 | 87 | 1008.6 |
| 20260504045555 | 47 | 0 | 0.0 | 0.0 | 0.00 | 0.01 | 0.00 | 86 | 1008.7 |
| 20260504045055 | 47 | 0 | 0.0 | 0.0 | 0.00 | 0.01 | 0.00 | 86 | 1008.7 |
| 20260504044604 | 47 | 0 | 0.0 | 0.0 | 0.00 | 0.01 | 0.00 | 86 | 1008.6 |
| 20260504044056 | 47 | 0 | 0.0 | 0.0 | 0.00 | 0.01 | 0.00 | 86 | 1008.7 |
| 20260504043556 | 47 | 0 | 0.0 | 0.0 | 0.00 | 0.01 | 0.00 | 86 | 1008.7 |
| 20260504043054 | 47 | 0 | 0.0 | 0.0 | 0.00 | 0.01 | 0.00 | 87 | 1008.7 |
| 20260504042555 | 47 | 0 | 0.0 | 0.0 | 0.00 | 0.01 | 0.00 | 86 | 1008.8 |
| 20260504042054 | 47 | 0 | 0.0 | 0.0 | 0.00 | 0.01 | 0.00 | 86 | 1008.8 |
| 20260504041556 | 47 | 0 | 0.0 | 0.0 | 0.00 | 0.01 | 0.00 | 86 | 1008.8 |
| 20260504041056 | 47 | 0 | 0.0 | 0.0 | 0.00 | 0.01 | 0.00 | 86 | 1008.9 |
| 20260504040555 | 47 | 0 | 0.0 | 0.0 | 0.00 | 0.01 | 0.00 | 86 | 1008.8 |
| 20260504040103 | 47 | 0 | 0.0 | 0.0 | 0.00 | 0.01 | 0.00 | 86 | 1008.8 |
| 20260504035555 | 47 | 0 | 0.0 | 0.0 | 0.00 | 0.01 | 0.01 | 86 | 1008.8 |
| 20260504035055 | 47 | 0 | 0.0 | 0.0 | 0.00 | 0.01 | 0.01 | 86 | 1008.8 |
| 20260504034603 | 47 | 0 | 0.0 | 0.0 | 0.00 | 0.01 | 0.01 | 86 | 1008.8 |
| 20260504034055 | 47 | 0 | 0.0 | 0.0 | 0.00 | 0.01 | 0.01 | 85 | 1008.9 |
| 20260504033555 | 47 | 0 | 0.0 | 0.0 | 0.00 | 0.01 | 0.01 | 85 | 1009.0 |
| 20260504033104 | 47 | 0 | 0.0 | 0.0 | 0.00 | 0.01 | 0.01 | 85 | 1009.0 |
| 20260504032556 | 47 | 0 | 0.0 | 0.0 | 0.00 | 0.01 | 0.01 | 85 | 1009.0 |
| 20260504032055 | 47 | 0 | 0.0 | 0.0 | 0.00 | 0.01 | 0.01 | 85 | 1009.1 |
| 20260504031556 | 47 | 0 | 0.0 | 0.0 | 0.00 | 0.01 | 0.01 | 84 | 1009.2 |
| 20260504031055 | 47 | 0 | 0.0 | 0.0 | 0.00 | 0.01 | 0.01 | 84 | 1009.2 |
| 20260504030555 | 48 | 0 | 0.0 | 0.0 | 0.00 | 0.01 | 0.01 | 85 | 1009.2 |
| 20260504030054 | 48 | 0 | 0.0 | 0.0 | 0.00 | 0.01 | 0.01 | 84 | 1009.3 |
| 20260504025552 | 48 | 0 | 0.0 | 0.0 | 0.00 | 0.01 | 0.01 | 84 | 1009.4 |
| 20260504025055 | 48 | 0 | 0.0 | 0.0 | 0.00 | 0.01 | 0.01 | 83 | 1009.3 |
| 20260504024601 | 48 | 0 | 0.0 | 0.0 | 0.00 | 0.01 | 0.01 | 83 | 1009.3 |
| 20260504024055 | 48 | 0 | 0.0 | 0.0 | 0.00 | 0.01 | 0.01 | 83 | 1009.3 |
| 20260504023556 | 48 | 0 | 0.0 | 0.0 | 0.00 | 0.01 | 0.01 | 82 | 1009.4 |
| 20260504023057 | 48 | 0 | 0.0 | 0.0 | 0.00 | 0.01 | 0.01 | 81 | 1009.3 |
| 20260504022556 | 48 | 0 | 0.0 | 0.0 | 0.00 | 0.01 | 0.01 | 81 | 1009.3 |
| 20260504022056 | 49 | 0 | 0.0 | 0.0 | 0.00 | 0.01 | 0.01 | 81 | 1009.5 |
| 20260504021554 | 49 | 0 | 0.0 | 0.0 | 0.01 | 0.01 | 0.01 | 80 | 1009.6 |
| 20260504021054 | 49 | 0 | 0.0 | 0.0 | 0.01 | 0.01 | 0.01 | 78 | 1009.8 |
| 20260504020555 | 49 | 0 | 0.0 | 0.0 | 0.01 | 0.01 | 0.01 | 78 | 1009.9 |
| 20260504020055 | 49 | 0 | 0.0 | 0.0 | 0.01 | 0.01 | 0.01 | 77 | 1009.8 |
| 20260504015555 | 50 | 0 | 0.0 | 0.0 | 0.01 | 0.01 | 0.01 | 76 | 1009.9 |
| 20260504015056 | 50 | 0 | 0.0 | 4.0 | 0.01 | 0.01 | 0.01 | 76 | 1009.9 |
| 20260504014556 | 50 | 0 | 0.0 | 4.0 | 0.01 | 0.01 | 0.01 | 76 | 1009.9 |
| 20260504014058 | 50 | 292 | 2.0 | 8.0 | 0.01 | 0.01 | 0.01 | 75 | 1009.9 |
| 20260504013555 | 50 | 285 | 3.0 | 11.0 | 0.01 | 0.01 | 0.01 | 75 | 1009.9 |
| 20260504013057 | 50 | 300 | 5.0 | 11.0 | 0.01 | 0.01 | 0.01 | 74 | 1010.0 |
| 20260504012555 | 50 | 297 | 5.0 | 15.0 | 0.01 | 0.01 | 0.01 | 74 | 1010.2 |
| 20260504012055 | 51 | 303 | 7.0 | 15.0 | 0.01 | 0.01 | 0.01 | 73 | 1010.3 |
| 20260504011555 | 51 | 281 | 6.0 | 10.0 | 0.00 | 0.00 | 0.00 | 70 | 1010.2 |